Time,TemperatureF,DewpointF,PressureIn,WindDirection,WindDirectionDegrees,WindSpeedMPH,WindSpeedGustMPH,Humidity,HourlyPrecipIn,Conditions,Clouds,dailyrainin,SoftwareType,DateUTC
2013-11-25 08:12:00,29.0,26.0,30.25,NNW,335,0.0,0.0,87,0.00,,,0.00,,2013-11-25 16:12:00,
2013-11-25 08:52:00,30.0,27.0,30.27,NNW,335,0.0,0.0,88,0.00,,,0.00,,2013-11-25 16:52:00,
2013-11-25 09:12:00,32.0,29.0,30.27,NNW,335,0.0,0.0,88,0.00,,,0.00,,2013-11-25 17:12:00,
2013-11-25 09:22:00,32.0,29.0,30.27,NNW,335,0.0,0.0,88,0.00,,,0.00,,2013-11-25 17:22:00,
2013-11-25 09:43:00,36.0,33.0,30.27,NNW,335,0.0,0.0,90,0.00,,,0.00,,2013-11-25 17:43:00,
2013-11-25 09:52:00,36.0,33.0,30.27,NNW,335,0.0,0.0,90,0.00,,,0.00,,2013-11-25 17:52:00,
2013-11-25 10:12:00,42.0,40.0,30.27,NNW,334,0.0,2.0,92,0.00,,,0.00,,2013-11-25 18:12:00,
2013-11-25 10:21:00,42.0,40.0,30.27,NNW,334,0.0,2.0,92,0.00,,,0.00,,2013-11-25 18:21:00,
2013-11-25 10:42:00,47.0,44.0,30.27,NE,56,0.0,0.0,89,0.00,,,0.00,,2013-11-25 18:42:00,
2013-11-25 10:52:00,49.0,44.0,30.26,NE,56,0.0,0.0,83,0.00,,,0.00,,2013-11-25 18:52:00,
2013-11-25 11:02:00,49.0,44.0,30.26,NE,56,0.0,0.0,83,0.00,,,0.00,,2013-11-25 19:02:00,
2013-11-25 11:11:00,49.0,44.0,30.26,NE,56,0.0,0.0,83,0.00,,,0.00,,2013-11-25 19:11:00,
2013-11-25 11:21:00,49.0,44.0,30.26,NE,56,0.0,0.0,83,0.00,,,0.00,,2013-11-25 19:21:00,
2013-11-25 11:42:00,56.0,44.0,30.24,ESE,118,0.0,0.0,63,0.00,,,0.00,,2013-11-25 19:42:00,
2013-11-25 11:52:00,56.0,44.0,30.24,ESE,118,0.0,0.0,63,0.00,,,0.00,,2013-11-25 19:52:00,
2013-11-25 12:01:00,56.0,44.0,30.24,ESE,118,0.0,0.0,63,0.00,,,0.00,,2013-11-25 20:01:00,
2013-11-25 13:11:00,65.0,43.0,30.21,North,2,0.0,3.0,45,0.00,,,0.00,,2013-11-25 21:11:00,
2013-11-25 13:22:00,65.0,43.0,30.21,North,2,0.0,3.0,45,0.00,,,0.00,,2013-11-25 21:22:00,
2013-11-25 13:44:00,66.0,43.0,30.21,NE,36,0.0,2.0,44,0.00,,,0.00,,2013-11-25 21:44:00,
2013-11-25 13:53:00,65.0,42.0,30.20,NW,324,0.0,3.0,43,0.00,,,0.00,,2013-11-25 21:53:00,
2013-11-25 14:23:00,65.0,42.0,30.19,NNE,16,0.0,1.0,43,0.00,,,0.00,,2013-11-25 22:23:00,
2013-11-25 14:42:00,65.0,41.0,30.19,North,360,0.0,3.0,42,0.00,,,0.00,,2013-11-25 22:42:00,
2013-11-25 14:52:00,65.0,41.0,30.19,North,360,0.0,3.0,42,0.00,,,0.00,,2013-11-25 22:52:00,
2013-11-25 15:22:00,65.0,39.0,30.19,North,360,0.0,0.0,39,0.00,,,0.00,,2013-11-25 23:22:00,
2013-11-25 15:33:00,65.0,39.0,30.19,North,360,0.0,0.0,39,0.00,,,0.00,,2013-11-25 23:33:00,
2013-11-25 15:42:00,65.0,39.0,30.19,North,360,0.0,0.0,39,0.00,,,0.00,,2013-11-25 23:42:00,
2013-11-25 15:52:00,65.0,39.0,30.19,North,360,0.0,0.0,39,0.00,,,0.00,,2013-11-25 23:52:00,
2013-11-25 16:11:00,64.0,39.0,30.18,North,5,0.0,2.0,39,0.00,,,0.00,,2013-11-26 00:11:00,
2013-11-25 16:21:00,64.0,39.0,30.18,North,5,0.0,2.0,39,0.00,,,0.00,,2013-11-26 00:21:00,
2013-11-25 16:42:00,63.0,40.0,30.22,North,5,0.0,0.0,43,0.00,,,0.00,,2013-11-26 00:42:00,
2013-11-25 16:52:00,60.0,41.0,30.17,WSW,250,0.0,0.0,49,0.00,,,0.00,,2013-11-26 00:52:00,
2013-11-25 17:01:00,60.0,41.0,30.17,WSW,250,0.0,0.0,49,0.00,,,0.00,,2013-11-26 01:01:00,
2013-11-25 17:21:00,56.0,41.0,30.17,WSW,250,0.0,0.0,56,0.00,,,0.00,,2013-11-26 01:21:00,
2013-11-25 17:52:00,53.0,40.0,30.17,WSW,250,0.0,0.0,61,0.00,,,0.00,,2013-11-26 01:52:00,
2013-11-25 18:21:00,50.0,39.0,30.19,WSW,250,0.0,0.0,66,0.00,,,0.00,,2013-11-26 02:21:00,
2013-11-25 18:32:00,50.0,39.0,30.19,WSW,250,0.0,0.0,66,0.00,,,0.00,,2013-11-26 02:32:00,
2013-11-25 18:42:00,50.0,39.0,30.19,WSW,250,0.0,0.0,66,0.00,,,0.00,,2013-11-26 02:42:00,
2013-11-25 18:52:00,50.0,39.0,30.19,WSW,250,0.0,0.0,66,0.00,,,0.00,,2013-11-26 02:52:00,
2013-11-25 19:22:00,46.0,38.0,30.19,WSW,250,0.0,0.0,73,0.00,,,0.00,,2013-11-26 03:22:00,
2013-11-25 19:43:00,45.0,37.0,30.20,WSW,250,0.0,0.0,74,0.00,,,0.00,,2013-11-26 03:43:00,
2013-11-25 19:54:00,45.0,38.0,30.24,WSW,250,0.0,0.0,75,0.00,,,0.00,,2013-11-26 03:54:00,
2013-11-25 20:12:00,43.0,36.0,30.20,WSW,250,0.0,0.0,76,0.00,,,0.00,,2013-11-26 04:12:00,
2013-11-25 20:23:00,43.0,36.0,30.20,WSW,250,0.0,0.0,76,0.00,,,0.00,,2013-11-26 04:23:00,
2013-11-25 20:53:00,42.0,36.0,30.20,WSW,250,0.0,0.0,79,0.00,,,0.00,,2013-11-26 04:53:00,
2013-11-25 21:12:00,41.0,35.0,30.19,WSW,250,0.0,0.0,78,0.00,,,0.00,,2013-11-26 05:12:00,
2013-11-25 21:22:00,41.0,35.0,30.19,WSW,250,0.0,0.0,78,0.00,,,0.00,,2013-11-26 05:22:00,
2013-11-25 21:30:00,39.0,33.0,30.25,WSW,250,0.0,0.0,80,0.00,,,0.00,,2013-11-26 05:30:00,
2013-11-25 21:42:00,40.0,34.0,30.26,WSW,250,0.0,0.0,79,0.00,,,0.00,,2013-11-26 05:42:00,
2013-11-25 21:53:00,39.0,33.0,30.25,WSW,250,0.0,0.0,80,0.00,,,0.00,,2013-11-26 05:53:00,
2013-11-25 22:02:00,39.0,33.0,30.25,WSW,250,0.0,0.0,80,0.00,,,0.00,,2013-11-26 06:02:00,
2013-11-25 22:22:00,39.0,33.0,30.25,WSW,250,0.0,0.0,80,0.00,,,0.00,,2013-11-26 06:22:00,